Powrót do katalogu

RASSVET-3 2

AktywnyNaukaPO
NORAD 68361·PAYLOAD·🇷🇺 Russia

Wystrzelony Mar 23, 2026 z Plesetsk Cosmodrome

Loading…

Następne Przeloty (najbliższe 24 godziny)

TLE

ŚwieżeSource: Space-Track

Epoka: Sep 14, 2026, 12:36 UTC

1 68361U 26061B   26257.52510265  .00003116  00000-0  15011-3 0  9999
2 68361  82.2886 279.5999 0004130 142.5282 217.6240 15.18394685 27216

Śledź RASSVET-3 2 w czasie rzeczywistym z AllMySat

Download on the App Store